Weather History for Litchfield, IL

Change the Weather History Date:

Friday, August 15, 2014

  Actual Average (KSPI) Record (KSPI)
Temperature  
Mean Temperature 70 °F 75 °F  
Max Temperature 81 °F 85 °F 100 °F (1936)
Min Temperature 60 °F 64 °F 47 °F (1962)
Degree Days  
Heating Degree Days 0 0  
Month to date heating degree days 0  
Since 1 June heating degree days 16  
Since 1 July heating degree days 1  
Cooling Degree Days 5 10  
Month to date cooling degree days 150  
Year to date cooling degree days 829  
Since 1 June cooling degree days 725  
Growing Degree Days 20 (Base 50)    
Moisture  
Dew Point 65 °F    
Average Humidity 82    
Maximum Humidity 96    
Minimum Humidity 64    
Precipitation  
Precipitation 0.02 in 0.10 in 1.24 in (1985)
Month to date precipitation 1.61  
Year to date precipitation 24.02  
Snow  
Snow 0.00 in 0.00 in 0.00 in ()
Month to date snowfall 0.0  
Since 1 June snowfall 0.0  
Since 1 July snowfall 0.0  
Snow Depth -    
Sea Level Pressure  
Sea Level Pressure 30.03 in    
Wind  
Wind Speed 6 mph (ESE)    
Max Wind Speed 9 mph    
Max Gust Speed -    
Visibility 10 miles    
Events Rain    
T = Trace of Precipitation, MM = Missing Value Source: NWS Daily Summary

Daily Weather History Graph

Daily Weather History Graph

Search for Another Location

Airport:

Trip Planner

Search our weather history database for the weather conditions in past years. The results will help you decide how hot, cold, wet, or windy it might be!

Date:

Astronomy

Aug. 15, 2014 Rise Set
Actual Time 6:11 AM CDT 7:53 PM CDT
Civil Twilight 5:43 AM CDT 8:22 PM CDT
Nautical Twilight 5:08 AM CDT 8:56 PM CDT
Astronomical Twilight 4:31 AM CDT 9:33 PM CDT
Moon 10:59 PM CDT (8/15) 11:51 AM CDT (8/15)
Length of Visible Light 14h 39m
Length of Day
13h 41m
Waning Gibbous, 69% of the Moon is Illuminated
Aug 15
Waning Gibbous
Aug 17
Last Quarter
Aug 25
New
Sep 2
First Quarter
Sep 8
Full

Hourly Weather History & Observations

Time (CDT) Temp. Heat Index Dew Point Humidity Pressure Visibility Wind Dir Wind Speed Gust Speed Precip Events Conditions
12:15 AM 67.5 °F - 64.9 °F 92% 30.04 in 10.0 mi East 4.6 mph - N/A   Clear
12:35 AM 67.5 °F - 65.5 °F 93% 30.05 in 10.0 mi East 4.6 mph - N/A   Clear
12:55 AM 67.1 °F - 65.3 °F 94% 30.04 in 10.0 mi East 5.8 mph - N/A   Clear
1:15 AM 67.1 °F - 65.5 °F 95% 30.04 in 10.0 mi East 6.9 mph - N/A   Clear
1:35 AM 66.7 °F - 65.1 °F 95% 30.03 in 10.0 mi ESE 6.9 mph - N/A   Clear
1:55 AM 66.7 °F - 64.4 °F 92% 30.03 in 10.0 mi East 6.9 mph - N/A   Clear
2:15 AM 66.7 °F - 63.5 °F 89% 30.03 in 10.0 mi ESE 5.8 mph - N/A   Clear
2:35 AM 66.6 °F - 62.1 °F 85% 30.03 in 10.0 mi ESE 6.9 mph - N/A   Clear
2:55 AM 66.2 °F - 61.7 °F 85% 30.03 in 10.0 mi East 5.8 mph - N/A   Clear
3:15 AM 65.3 °F - 61.5 °F 88% 30.03 in 10.0 mi East 6.9 mph - N/A   Clear
3:35 AM 65.1 °F - 61.2 °F 87% 30.03 in 10.0 mi East 9.2 mph - N/A   Clear
3:55 AM 64.8 °F - 60.8 °F 87% 30.04 in 10.0 mi East 8.1 mph - N/A   Clear
4:15 AM 64.4 °F - 60.3 °F 86% 30.05 in 10.0 mi ESE 6.9 mph - N/A   Clear
4:35 AM 63.5 °F - 59.7 °F 87% 30.04 in 10.0 mi ESE 9.2 mph - N/A   Clear
4:55 AM 62.6 °F - 59.5 °F 90% 30.04 in 10.0 mi ESE 8.1 mph - N/A   Clear
5:35 AM 61.7 °F - 59.0 °F 91% 30.04 in 10.0 mi ESE 5.8 mph - N/A   Clear
6:15 AM 60.8 °F - 58.3 °F 91% 30.05 in 10.0 mi ESE 8.1 mph - N/A   Clear
6:35 AM 60.6 °F - 58.1 °F 91% 30.05 in 10.0 mi East 8.1 mph - N/A   Clear
6:55 AM 61.0 °F - 57.9 °F 90% 30.06 in 10.0 mi East 8.1 mph - N/A   Clear
7:15 AM 61.9 °F - 57.6 °F 86% 30.07 in 10.0 mi ESE 8.1 mph - N/A   Clear
7:35 AM 62.8 °F - 57.0 °F 81% 30.08 in 10.0 mi ESE 9.2 mph - N/A   Clear
7:55 AM 63.7 °F - 56.5 °F 77% 30.08 in 10.0 mi ESE 9.2 mph - N/A   Clear
8:15 AM 64.4 °F - 56.1 °F 74% 30.08 in 10.0 mi ESE 9.2 mph - N/A   Clear
8:35 AM 66.0 °F - 57.0 °F 73% 30.08 in 10.0 mi ESE 9.2 mph - N/A   Clear
8:55 AM 66.2 °F - 57.4 °F 73% 30.08 in 10.0 mi ESE 6.9 mph - N/A   Clear
9:15 AM 66.9 °F - 58.3 °F 74% 30.07 in 10.0 mi ESE 6.9 mph - N/A   Clear
9:35 AM 67.1 °F - 59.0 °F 75% 30.07 in 10.0 mi ESE 5.8 mph - N/A   Clear
9:55 AM 69.4 °F - 60.3 °F 73% 30.07 in 10.0 mi SE 5.8 mph - N/A   Clear
10:15 AM 69.8 °F - 60.6 °F 73% 30.07 in 10.0 mi SE 9.2 mph - N/A   Clear
10:35 AM 71.6 °F - 61.9 °F 71% 30.08 in 10.0 mi SE 5.8 mph - N/A   Clear
10:55 AM 72.3 °F - 63.0 °F 72% 30.08 in 10.0 mi SE 5.8 mph - N/A   Clear
11:15 AM 74.3 °F - 63.9 °F 70% 30.08 in 10.0 mi ESE 6.9 mph - N/A   Clear
11:35 AM 75.2 °F - 64.0 °F 68% 30.07 in 10.0 mi ESE 4.6 mph - N/A   Clear
12:15 PM 77.9 °F - 65.5 °F 65% 30.05 in 10.0 mi SSE 3.5 mph - N/A   Clear
12:35 PM 77.7 °F - 65.8 °F 67% 30.04 in 10.0 mi SSE 8.1 mph - N/A   Clear
12:55 PM 77.9 °F - 65.5 °F 65% 30.04 in 10.0 mi SE 5.8 mph - N/A   Clear
1:15 PM 77.9 °F - 66.6 °F 68% 30.04 in 10.0 mi SE 6.9 mph - N/A   Scattered Clouds
1:35 PM 78.3 °F - 66.4 °F 67% 30.03 in 10.0 mi ESE 5.8 mph - N/A   Scattered Clouds
1:55 PM 79.2 °F - 66.7 °F 66% 30.03 in 10.0 mi SE 6.9 mph - N/A   Clear
2:15 PM 79.3 °F - 67.1 °F 66% 30.03 in 10.0 mi South 4.6 mph - N/A   Clear
2:35 PM 80.6 °F 83.1 °F 67.5 °F 64% 30.02 in 10.0 mi SE 3.5 mph - N/A   Clear
2:55 PM 79.2 °F - 66.6 °F 65% 30.01 in 10.0 mi SE 4.6 mph - N/A   Clear
3:15 PM 79.3 °F - 67.5 °F 67% 30.01 in 10.0 mi ESE 4.6 mph - N/A   Clear
3:35 PM 78.8 °F - 67.6 °F 68% 30.01 in 10.0 mi ESE 5.8 mph - N/A   Clear
3:55 PM 78.4 °F - 67.3 °F 68% 30.01 in 10.0 mi SSE 4.6 mph - N/A   Clear
4:15 PM 78.4 °F - 68.2 °F 71% 30.01 in 10.0 mi ESE 3.5 mph - N/A   Clear
4:35 PM 78.1 °F - 68.7 °F 73% 30.00 in 10.0 mi ESE 5.8 mph - N/A   Clear
4:55 PM 77.9 °F - 68.7 °F 73% 30.00 in 10.0 mi East 4.6 mph - N/A Rain Light Rain
5:15 PM 77.0 °F - 69.6 °F 78% 30.00 in 10.0 mi ESE 4.6 mph - N/A Rain Light Rain
5:35 PM 75.9 °F - 70.2 °F 82% 29.99 in 10.0 mi ESE 3.5 mph - N/A   Light Drizzle
5:55 PM 75.2 °F - 70.5 °F 85% 29.99 in 10.0 mi East 4.6 mph - N/A Rain Light Rain
6:15 PM 74.7 °F - 70.5 °F 87% 29.99 in 10.0 mi East 4.6 mph - N/A   Light Drizzle
6:35 PM 74.3 °F - 70.9 °F 89% 29.98 in 10.0 mi East 3.5 mph - N/A   Light Drizzle
6:55 PM 73.9 °F - 70.7 °F 90% 29.98 in 10.0 mi East 3.5 mph - N/A Rain Light Rain
7:15 PM 73.4 °F - 70.3 °F 90% 29.98 in 10.0 mi ESE 5.8 mph - N/A   Mostly Cloudy
7:35 PM 73.0 °F - 70.3 °F 91% 29.98 in 10.0 mi ESE 4.6 mph - N/A   Mostly Cloudy
7:55 PM 72.5 °F - 70.3 °F 93% 29.98 in 7.0 mi SE 3.5 mph - 0.01 in Rain Light Rain
8:15 PM 71.6 °F - 70.2 °F 95% 29.97 in 10.0 mi ESE 5.8 mph - 0.01 in Rain Light Rain
8:35 PM 71.6 °F - 70.0 °F 95% 29.98 in 10.0 mi ESE 3.5 mph - 0.01 in Rain Light Rain
8:55 PM 71.6 °F - 69.8 °F 94% 29.98 in 10.0 mi ESE 4.6 mph - 0.01 in   Light Drizzle
9:15 PM 71.4 °F - 69.8 °F 95% 29.98 in 10.0 mi ESE 4.6 mph - N/A   Light Drizzle
9:35 PM 71.1 °F - 69.4 °F 95% 29.98 in 10.0 mi SE 4.6 mph - N/A   Light Drizzle
9:55 PM 70.7 °F - 69.4 °F 96% 29.98 in 10.0 mi ESE 5.8 mph - N/A   Clear
10:15 PM 70.7 °F - 69.4 °F 96% 29.98 in 10.0 mi ESE 5.8 mph - N/A   Scattered Clouds
10:35 PM 70.9 °F - 69.3 °F 95% 29.98 in 10.0 mi SE 5.8 mph - N/A   Scattered Clouds
10:55 PM 70.7 °F - 69.3 °F 95% 29.98 in 10.0 mi SSE 5.8 mph - N/A   Clear
11:15 PM 70.3 °F - 69.3 °F 96% 29.98 in 10.0 mi SSE 4.6 mph - N/A   Clear
11:35 PM 70.3 °F - 69.3 °F 96% 29.97 in 7.0 mi SE 5.8 mph - N/A Rain Light Rain
11:55 PM 70.3 °F - 69.3 °F 96% 29.96 in 7.0 mi SE 4.6 mph - N/A   Light Drizzle